• In Belarus
  • List of Countries
  • For 7 days
  • Water Temperature
  • Satellite Maps
  • Weather Map
  • Weather Widgets
  • user-avatar
    Login

    Hourly Weather Gorodenka

    Today, 22 September, Saturday

    Time Temperature Precipitation Wind Pressure Humidity
    00:00 +18°C° 0 mm 2 mps 738 mmHg 95%
    01:00 +17°C° 0 mm 2 mps 737 mmHg 94%
    02:00 +18°C° 0 mm 1 mps 737 mmHg 92%
    03:00 +16°C° 0 mm 1 mps 737 mmHg 92%
    04:00 +16°C° 0 mm 1 mps 737 mmHg 91%
    05:00 +16°C° 0 mm 1 mps 737 mmHg 86%
    06:00 +16°C° 0 mm 1 mps 737 mmHg 83%
    07:00 +16°C° 0 mm 1 mps 738 mmHg 81%
    08:00 +16°C° 0 mm 1 mps 737 mmHg 88%
    09:00 +17°C° 0 mm 0 mps 738 mmHg 89%
    10:00 +21°C° 0 mm 1 mps 738 mmHg 92%
    11:00 +18°C° 0 mm 8 mps 739 mmHg 91%
    12:00 +17°C° 0 mm 7 mps 739 mmHg 91%
    13:00 +18°C° 0 mm 7 mps 739 mmHg 88%
    14:00 +17°C° 0 mm 6 mps 739 mmHg 88%
    15:00 +17°C° 0 mm 5 mps 739 mmHg 87%
    16:00 +15°C° 0 mm 6 mps 739 mmHg 91%
    17:00 +14°C° 0 mm 6 mps 739 mmHg 94%
    18:00 +11°C° 1.3 mm 6 mps 739 mmHg 98%
    19:00 +12°C° 1.8 mm 4 mps 739 mmHg 99%
    20:00 +13°C° 1.4 mm 2 mps 739 mmHg 98%
    21:00 +13°C° 0.1 mm 1 mps 739 mmHg 99%
    22:00 +13°C° 0 mm 2 mps 739 mmHg 98%
    23:00 +12°C° 0 mm 3 mps 740 mmHg 95%

    Tomorrow, 23 September, Sunday

    Time Temperature Precipitation Wind Pressure Humidity
    00:00 +11°C° 0 mm 3 mps 740 mmHg 97%
    01:00 +11°C° 0 mm 3 mps 739 mmHg 95%
    02:00 +11°C° 0 mm 3 mps 739 mmHg 96%
    03:00 +10°C° 0 mm 3 mps 739 mmHg 97%
    04:00 +10°C° 0 mm 3 mps 740 mmHg 96%
    05:00 +9°C° 0 mm 2 mps 740 mmHg 96%
    06:00 +9°C° 0 mm 2 mps 740 mmHg 98%
    07:00 +9°C° 0 mm 2 mps 740 mmHg 96%
    08:00 +10°C° 0 mm 3 mps 740 mmHg 95%
    09:00 +12°C° 0 mm 4 mps 741 mmHg 91%
    10:00 +13°C° 0 mm 5 mps 741 mmHg 87%
    11:00 +14°C° 0 mm 5 mps 741 mmHg 85%
    12:00 +15°C° 0 mm 5 mps 742 mmHg 80%
    13:00 +15°C° 0 mm 5 mps 741 mmHg 76%
    14:00 +15°C° 0 mm 5 mps 741 mmHg 72%
    15:00 +17°C° 0 mm 4 mps 741 mmHg 71%
    16:00 +16°C° 0 mm 3 mps 741 mmHg 75%
    17:00 +16°C° 0 mm 2 mps 741 mmHg 78%
    18:00 +15°C° 0 mm 1 mps 741 mmHg 82%
    19:00 +14°C° 0 mm 1 mps 741 mmHg 85%
    20:00 +14°C° 0 mm 2 mps 741 mmHg 87%
    21:00 +13°C° 0 mm 2 mps 741 mmHg 92%
    22:00 +12°C° 0 mm 2 mps 740 mmHg 94%
    23:00 +12°C° 0 mm 2 mps 740 mmHg 90%

    Day after tomorrow, 24 September, Monday

    Time Temperature Precipitation Wind Pressure Humidity
    00:00 +12°C° 0 mm 2 mps 738 mmHg 93%
    01:00 +10°C° 0 mm 2 mps 737 mmHg 96%
    02:00 +10°C° 0 mm 3 mps 736 mmHg 97%
    03:00 +10°C° 0 mm 3 mps 735 mmHg 95%
    04:00 +10°C° 0 mm 3 mps 733 mmHg 95%
    05:00 +10°C° 0 mm 3 mps 732 mmHg 96%
    06:00 +11°C° 0 mm 4 mps 731 mmHg 95%
    07:00 +12°C° 0 mm 5 mps 730 mmHg 90%
    08:00 +13°C° 0 mm 4 mps 729 mmHg 90%
    09:00 +14°C° 0 mm 4 mps 729 mmHg 88%
    10:00 +17°C° 0.2 mm 2 mps 729 mmHg 85%
    11:00 +19°C° 0.3 mm 4 mps 728 mmHg 83%
    12:00 +21°C° 0 mm 4 mps 727 mmHg 78%
    13:00 +22°C° 0 mm 10 mps 727 mmHg 77%
    14:00 +22°C° 0 mm 9 mps 727 mmHg 77%
    15:00 +14°C° 1 mm 13 mps 729 mmHg 77%
    16:00 +12°C° 0 mm 11 mps 730 mmHg 79%
    17:00 +11°C° 0 mm 10 mps 731 mmHg 81%
    18:00 +11°C° 0 mm 9 mps 732 mmHg 83%
    19:00 +10°C° 0 mm 9 mps 732 mmHg 83%
    20:00 +9°C° 0 mm 10 mps 733 mmHg 83%
    21:00 +8°C° 0 mm 9 mps 734 mmHg 83%
    22:00 +7°C° 0 mm 9 mps 734 mmHg 85%
    23:00 +7°C° 0 mm 8 mps 735 mmHg 88%

    25 September, Tuesday

    Time Temperature Precipitation Wind Pressure Humidity
    00:00 +7°C° 0 mm 8 mps 736 mmHg 89%
    01:00 +7°C° 0 mm 9 mps 736 mmHg 90%
    02:00 +7°C° 0 mm 8 mps 736 mmHg 91%

    26 September, Wednesday

    Time Temperature Precipitation Wind Pressure Humidity

    27 September, Thursday

    Time Temperature Precipitation Wind Pressure Humidity
    Show more